map of QPG home
QPG - Airport
Location
City:  Singapore, Singapore
Name:Paya Lebar Airport
Old (Alt.):Paya Lebar AB
ICAO:WSAP
IATA:QPG

Details
Type:Airport (Aerodrome, Airfield)
Use:Public/Civil, Military, International (customs by prior arrangement)
Latitude:121'21"N (1.355722)
Longitude:10354'10"E (103.902778)
Elevation:65 ft (20 m)
Variation:0.22E (WMM2015 magnetic declination)
-0.00 annual change
Runways:1
Longest:12402 × 200 ft (3780 × 61 m), paved

Time
Time Zone:UTC+8
Local Time:

Weather
METAR:WSAP 221700Z 00000KT 9999 FEW018 BKN300 28/25 Q1009
TAF:WSAP 221100Z 2212/2318 18008KT 9999 FEW018CB SCT020
TEMPO 2300/2305 3000 TSRA FEW012CB BKN015

Related Locations
Nearby:
Farthest:TPN: 12381 mi / 19925 km
Tiputini, D, EC

Find:

   beyond  
but within

Other Information
Maps:
NOTAMs:
Links:
Sources:

  
flag of Singapore   

Airport Diagram

Airport diagram for QPG

Airport diagram PDF from AIP Singapore

Sectional Chart

Flight Planning
at skyvector.com

Satellite Image

Google Maps Satellite view

 

Copyright © 2004-2018 Karl L. Swartz. All rights reserved.
The Great Circle Mapper name and logo are trademarks of the Great Circle Mapper.
All other trademarks mentioned herein belong to their respective owners.
Please see credits for attibutions and further copyright information.

  Follow gcmap on Facebook Follow gcmap on Twitter Follow gcmap on Google+ GCmap on LinkedIn

hCard Microformat

Geo Microformat